THOR ABLESTAR DEB, 1521

Orbit data source: Space-Track

THOR ABLESTAR DEB, 1521 is space debris in LEO originally from a launch on Fri, 13 Aug 1965 UTC launched from the Air Force Western Test Range (AFWTR). Debris objects in space refer to the collection of defunct objects orbiting the Earth. Examples of debris include non-operational satellites, rocket bodies, and fragments generated from explosions, collisions, or faulty payload assembly.

Loading next visibility...
Identifier
1521, 1965-065K
Orbit
LEO
Country
Flag of USUS
Related business
Manufacturer
NRL
Mission
Spacecraft
Bus & Motor
Unknown
Mass
Unknown
Launch date (UTC)
1965-08-13 (60 years ago)
Launch vehicle
Unknown
Launch site
Air Force Western Test Range (AFWTR)
Object type
Payload
Rocket body
Debris
Shape & HBR
Unknown shape, 0.2 m
Radar Cross Section
Small (<0.1 m²)

Expand to show TLE details & history
Last TLE update: 9 hours ago

TLE from 9 hours ago
0 THOR ABLESTAR DEB
1  1521U 65065K   25355.09996278  .00000044  00000-0  69144-4 0  9997
2  1521  90.0094 209.9804 0070716  44.0182 109.3290 13.33274869935675
Epoch: 2025-12-21T02:23Z
TLE epoch observation values (Epoch: 2025-12-21T02:23:56.784Z)
Latitude
25.91999°
Longitude
-95.91892°
Altitude
1,155.539 km
Speed
7.269 km/s
True Right ascension
01h 59m 56s
True Declination
25° 47' 32"
Sunlit
Object was in full shadow at epoch
Visualization orbit readout
Latitude
Unknown
Longitude
Unknown
Altitude
Unknown
Speed
Unknown
Apparent Right ascension
Unknown
Apparent Declination
Unknown
Sunlit
N/A
Visualization observer readout
Local Sidereal Time
10:43:33
Azimuth
Unknown
Elevation
Unknown
Doppler factor
Unknown
Orbital elements
Apogee altitude
1,184.615 km
Perigee altitude
1,078.405 km
Semi-major axis
7,509.647 km
Eccentricity
0.00707
Inclination
90.0094°
RAAN
209.9804°
Arg. of periapsis
44.0182°
True anomaly
110.09142°
Mean anomaly
109.329°
Eccentric anomaly
109.71043°
Mean motion
3.33514 °/min
Orbital period
107.94 mins
BSTAR
0.000069144
Loading maneuver chart data...
Computing Atmospheric mass density...
Loading historical data...
Loading historical data...
Loading historical data...
Loading historical data...
Loading historical data...
Loading historical data...
Loading historical data...

Documentation

Showing up to 5 results
|